EW2549 Weather Reports


Display with metric or nautical units.
time (UTC)temp
F
wind
direction
speed
MPH
gust
MPH
rain 1hr
in
rain 24hr
in
rain mn
in
humidity
%
barometer
mb
20260506193057 45 128 0.0 0.0 0.12 0.27 0.20 57 1022.3
20260506191554 48 128 0.0 0.0 0.09 0.23 0.16 63 1022.4
20260506190050 43 71 0.0 0.0 0.06 0.19 0.12 76 1022.6
20260506184547 41 86 0.0 0.0 0.04 0.17 0.09 82 1022.8
20260506183058 37 86 0.0 0.0 0.04 0.16 0.08 88 1023.1
20260506181547 36 83 0.0 0.0 0.03 0.15 0.07 89 1023.1
20260506180040 36 45 0.0 0.0 0.03 0.14 0.06 90 1023.1
20260506174536 35 92 0.0 0.0 0.03 0.13 0.05 92 1023.0
20260506173031 33 324 0.0 0.0 0.02 0.12 0.04 92 1022.9
20260506163022 33 350 0.0 4.0 0.02 0.10 0.02 93 1021.8
20260506161523 33 319 0.0 7.0 0.01 0.09 0.01 94 1021.6
20260506160117 32 307 0.0 5.0 0.01 0.09 0.01 94 1021.6
20260506154517 32 346 0.0 5.0 0.00 0.08 0.00 94 1021.4
20260506153015 32 317 0.0 7.0 0.00 0.08 0.00 94 1021.4
20260506151520 31 327 0.0 8.0 0.00 0.08 0.00 94 1021.2
20260506150024 31 321 0.0 3.0 0.00 0.08 0.00 94 1021.1
20260506144512 31 304 0.0 0.0 0.00 0.09 0.00 94 1021.0
20260506143033 31 355 0.0 0.0 0.00 0.09 0.00 94 1020.9
20260506141510 31 346 0.0 0.0 0.00 0.09 0.00 94 1020.7
20260506140010 31 346 0.0 0.0 0.00 0.09 0.00 94 1020.7
20260506134506 31 346 0.0 0.0 0.00 0.10 0.00 94 1020.6
20260506133006 31 346 0.0 0.0 0.00 0.10 0.00 94 1020.4
20260506131502 31 346 0.0 0.0 0.00 0.10 0.00 94 1020.1
20260506130138 30 346 0.0 0.0 0.00 0.10 0.00 94 1019.8
20260506124558 30 346 0.0 0.0 0.00 0.11 0.00 94 1019.3
20260506123057 30 346 0.0 0.0 0.00 0.11 0.00 94 1019.1
20260506121557 30 346 0.0 0.0 0.00 0.11 0.00 94 1019.2
20260506120059 30 346 0.0 0.0 0.00 0.11 0.00 94 1019.1
20260506114553 30 347 0.0 0.0 0.00 0.15 0.00 94 1018.8
20260506113101 30 346 0.0 0.0 0.00 0.15 0.00 94 1018.7
20260506111553 30 346 0.0 0.0 0.00 0.15 0.00 94 1018.6
20260506110059 30 346 0.0 0.0 0.00 0.15 0.00 94 1018.2
20260506104600 30 346 0.0 0.0 0.00 0.17 0.00 94 1018.3
20260506103049 30 346 0.0 0.0 0.00 0.17 0.00 94 1018.1
20260506101555 30 346 0.0 0.0 0.00 0.17 0.00 94 1018.4
20260506100048 30 346 0.0 0.0 0.00 0.17 0.00 94 1018.4
20260506093047 30 346 0.0 0.0 0.00 0.18 0.00 94 1018.0
20260506091544 30 347 0.0 0.0 0.00 0.18 0.00 94 1017.9
20260506090044 30 347 0.0 0.0 0.00 0.18 0.00 94 1017.8
20260506084547 31 346 0.0 0.0 0.00 0.18 0.00 94 1017.8
20260506083042 31 346 0.0 0.0 0.00 0.18 0.00 94 1017.8
20260506081541 31 346 0.0 0.0 0.00 0.18 0.00 94 1017.6
20260506073043 31 342 0.0 0.0 0.00 0.18 0.00 94 1017.4
20260506071543 31 341 0.0 0.0 0.00 0.18 0.00 94 1017.4
20260506061533 31 341 0.0 0.0 0.00 0.18 0.00 93 1016.8
20260506044526 31 340 0.0 0.0 0.01 0.19 0.18 93 1016.0
20260506043025 31 340 0.0 0.0 0.00 0.18 0.17 93 1016.1
20260506041529 31 340 0.0 0.0 0.00 0.18 0.17 93 1016.0
20260506040025 31 340 0.0 0.0 0.00 0.18 0.17 93 1015.7
20260506034519 32 340 0.0 0.0 0.00 0.26 0.17 93 1015.5
20260506033026 32 340 0.0 0.0 0.00 0.26 0.17 93 1015.4
20260506031522 32 340 0.0 0.0 0.00 0.26 0.17 93 1015.1
20260506030018 32 340 0.0 0.0 0.00 0.26 0.17 93 1014.6
20260506024511 32 340 0.0 0.0 0.01 0.28 0.17 93 1014.3
20260506023109 32 340 0.0 0.0 0.01 0.28 0.17 93 1014.1
20260506021508 32 340 0.0 0.0 0.01 0.28 0.17 93 1013.6
20260506020006 32 340 0.0 0.0 0.01 0.28 0.17 93 1013.2
20260506014509 32 340 0.0 0.0 0.00 0.28 0.16 93 1012.9
20260506013007 32 345 0.0 3.0 0.00 0.28 0.16 93 1012.8
20260506011502 32 345 0.0 0.0 0.00 0.28 0.16 93 1012.4
20260506010105 32 340 0.0 2.0 0.00 0.28 0.16 93 1012.2
20260506004600 32 340 0.0 0.0 0.00 0.28 0.16 92 1012.1
20260506003057 32 24 0.0 0.0 0.00 0.28 0.16 92 1011.9
20260506001617 32 345 0.0 0.0 0.00 0.28 0.16 92 1011.9
20260506000055 32 338 0.0 0.0 0.00 0.28 0.16 92 1011.5
20260505234553 32 331 0.0 0.0 0.00 0.28 0.16 92 1011.3
20260505233055 32 329 0.0 0.0 0.00 0.28 0.16 92 1011.0
20260505231553 32 333 0.0 0.0 0.00 0.28 0.16 91 1010.7
20260505230047 32 316 1.0 6.0 0.00 0.28 0.16 91 1010.7
20260505224548 33 360 0.0 10.0 0.01 0.28 0.16 90 1010.8